Find Starlink 4283

NORAD ID: 53016 Int'l Des: 2022-076 Owner: SPXS Country: US Constellation: starlink operational
LEOCIRCULAR

Live Position

Loading 3D Globe...

About Starlink 4283

Description loading...

Upcoming Passes

Passes for default location (London). Set your location on the main map for personalized predictions.

Altitude History

Loading altitude history...

Two-Line Element Set

1 53016U 22076AG 26105.85835010 .00000165 00000-0 28440-4 0 9990
2 53016 53.2169 277.2635 0001297 89.1836 270.9304 15.08836172208599
Epoch: Apr 15, 2026 • Age: 21 hours

Current Status

Altitude 544.4 km
Velocity 7.59 km/s
Sub-Earth Point -15.85°S, 158.67°E
Launch Date Jul 7, 2022
Age 3.7 years
Type internet

Technical Details

Classification Payload
Mass 297.00 kg
Dry Mass 275.00 kg
Total Mass 297.00 kg
Length 0.20 m
Diameter 2.80 m
Span 9.00 m
Shape Box + pan
Manufacturer SPXS
Bus Type Starlink
Phase Status In Orbit
Owner/State SPXS/US

Most Searched